When you browse on this site, cookies collect data to enhance your experience and personalize the content and advertising you see.
Visit our Privacy Policy to learn more. By continuing to use the site, you agree to this use of cookies and data.
  • In Schweiz
  • Länderverzeichnis
  • Für 7 Tage
  • Wassertemperatur
  • Wetterkarte
  • Widgets
  • user-avatar
    Anmelden

    Stündliche Wetter Tukson

    Heute, 6 Juni, Samstag

    Zeit Temperatur Niederschläge Wind Luftdruck Luftfeuchtigkeit
    00:00 +27°C° 0 mm 2 m/S 693 mmHg 27%
    01:00 +26°C° 0 mm 2 m/S 693 mmHg 29%
    02:00 +25°C° 0 mm 2 m/S 692 mmHg 32%
    03:00 +24°C° 0 mm 2 m/S 692 mmHg 33%
    04:00 +24°C° 0 mm 2 m/S 693 mmHg 34%
    05:00 +22°C° 0 mm 3 m/S 693 mmHg 35%
    06:00 +24°C° 0 mm 2 m/S 693 mmHg 31%
    07:00 +25°C° 0 mm 2 m/S 694 mmHg 28%
    08:00 +26°C° 0 mm 2 m/S 695 mmHg 24%
    09:00 +28°C° 0 mm 3 m/S 695 mmHg 21%
    10:00 +29°C° 0 mm 3 m/S 695 mmHg 18%
    11:00 +32°C° 0 mm 4 m/S 695 mmHg 14%
    12:00 +33°C° 0 mm 4 m/S 695 mmHg 13%
    13:00 +34°C° 0 mm 4 m/S 694 mmHg 11%
    14:00 +35°C° 0 mm 4 m/S 694 mmHg 10%
    15:00 +35°C° 0 mm 4 m/S 693 mmHg 10%
    16:00 +36°C° 0 mm 5 m/S 693 mmHg 9%
    17:00 +36°C° 0 mm 5 m/S 693 mmHg 9%
    18:00 +35°C° 0 mm 5 m/S 693 mmHg 11%
    19:00 +33°C° 0 mm 4 m/S 693 mmHg 13%
    20:00 +30°C° 0 mm 4 m/S 693 mmHg 15%
    21:00 +29°C° 0 mm 4 m/S 693 mmHg 18%
    22:00 +28°C° 0 mm 3 m/S 693 mmHg 21%
    23:00 +27°C° 0 mm 3 m/S 693 mmHg 24%

    Morgen, 7 Juni, Sonntag

    Zeit Temperatur Niederschläge Wind Luftdruck Luftfeuchtigkeit
    00:00 +26°C° 0 mm 2 m/S 693 mmHg 28%
    01:00 +25°C° 0 mm 1 m/S 693 mmHg 31%
    02:00 +25°C° 0 mm 1 m/S 692 mmHg 34%
    03:00 +24°C° 0 mm 1 m/S 692 mmHg 35%
    04:00 +24°C° 0 mm 1 m/S 692 mmHg 37%
    05:00 +23°C° 0 mm 1 m/S 692 mmHg 38%
    06:00 +25°C° 0 mm 1 m/S 692 mmHg 34%
    07:00 +26°C° 0 mm 1 m/S 693 mmHg 30%
    08:00 +28°C° 0 mm 1 m/S 693 mmHg 26%
    09:00 +29°C° 0 mm 2 m/S 693 mmHg 23%
    10:00 +31°C° 0 mm 3 m/S 694 mmHg 20%
    11:00 +34°C° 0 mm 5 m/S 694 mmHg 17%
    12:00 +35°C° 0 mm 6 m/S 694 mmHg 16%
    13:00 +36°C° 0 mm 7 m/S 693 mmHg 15%
    14:00 +38°C° 0 mm 8 m/S 693 mmHg 14%
    15:00 +38°C° 0 mm 8 m/S 693 mmHg 15%
    16:00 +38°C° 0 mm 8 m/S 692 mmHg 15%
    17:00 +37°C° 0 mm 8 m/S 692 mmHg 15%
    18:00 +35°C° 0 mm 7 m/S 692 mmHg 17%
    19:00 +33°C° 0 mm 6 m/S 692 mmHg 19%
    20:00 +30°C° 0 mm 5 m/S 692 mmHg 21%
    21:00 +29°C° 0 mm 4 m/S 692 mmHg 23%
    22:00 +28°C° 0 mm 4 m/S 693 mmHg 26%
    23:00 +27°C° 0 mm 3 m/S 693 mmHg 28%

    übermorgen, 8 Juni, Montag

    Zeit Temperatur Niederschläge Wind Luftdruck Luftfeuchtigkeit
    00:00 +26°C° 0 mm 2 m/S 693 mmHg 30%
    01:00 +26°C° 0 mm 2 m/S 692 mmHg 33%
    02:00 +25°C° 0 mm 2 m/S 692 mmHg 35%
    03:00 +24°C° 0 mm 2 m/S 692 mmHg 35%
    04:00 +24°C° 0 mm 2 m/S 692 mmHg 36%
    05:00 +23°C° 0 mm 2 m/S 692 mmHg 36%
    06:00 +25°C° 0 mm 2 m/S 693 mmHg 33%
    07:00 +26°C° 0 mm 2 m/S 694 mmHg 29%
    08:00 +27°C° 0 mm 2 m/S 695 mmHg 26%
    09:00 +29°C° 0 mm 3 m/S 695 mmHg 23%
    10:00 +30°C° 0 mm 3 m/S 695 mmHg 20%
    11:00 +31°C° 0 mm 3 m/S 695 mmHg 17%
    12:00 +33°C° 0 mm 3 m/S 695 mmHg 15%
    13:00 +34°C° 0 mm 4 m/S 695 mmHg 14%
    14:00 +35°C° 0 mm 4 m/S 695 mmHg 13%
    15:00 +36°C° 0 mm 5 m/S 695 mmHg 13%
    16:00 +36°C° 0 mm 5 m/S 694 mmHg 13%
    17:00 +36°C° 0 mm 6 m/S 694 mmHg 13%
    18:00 +35°C° 0 mm 6 m/S 694 mmHg 14%
    19:00 +33°C° 0 mm 5 m/S 694 mmHg 16%
    20:00 +32°C° 0 mm 5 m/S 694 mmHg 17%
    21:00 +29°C° 0 mm 4 m/S 695 mmHg 18%
    22:00 +28°C° 0 mm 4 m/S 695 mmHg 19%
    23:00 +27°C° 0 mm 3 m/S 695 mmHg 19%

    9 Juni, Dienstag

    Zeit Temperatur Niederschläge Wind Luftdruck Luftfeuchtigkeit
    00:00 +26°C° 0 mm 2 m/S 695 mmHg 19%
    01:00 +25°C° 0 mm 2 m/S 695 mmHg 19%
    02:00 +25°C° 0 mm 1 m/S 694 mmHg 18%
    03:00 +24°C° 0 mm 1 m/S 695 mmHg 19%
    04:00 +23°C° 0 mm 1 m/S 695 mmHg 19%
    05:00 +21°C° 0 mm 0 m/S 695 mmHg 19%
    06:00 +23°C° 0 mm 0 m/S 696 mmHg 16%
    07:00 +25°C° 0 mm 0 m/S 696 mmHg 14%
    08:00 +27°C° 0 mm 0 m/S 697 mmHg 11%
    09:00 +30°C° 0 mm 1 m/S 697 mmHg 11%
    10:00 +32°C° 0 mm 1 m/S 697 mmHg 12%
    11:00 +33°C° 0 mm 1 m/S 697 mmHg 13%
    12:00 +35°C° 0 mm 2 m/S 697 mmHg 12%
    13:00 +36°C° 0 mm 2 m/S 697 mmHg 11%
    14:00 +37°C° 0 mm 2 m/S 696 mmHg 11%
    15:00 +37°C° 0 mm 3 m/S 696 mmHg 10%
    16:00 +37°C° 0 mm 3 m/S 696 mmHg 10%
    17:00 +37°C° 0 mm 3 m/S 696 mmHg 9%
    18:00 +36°C° 0 mm 3 m/S 696 mmHg 11%
    19:00 +34°C° 0 mm 3 m/S 696 mmHg 12%
    20:00 +33°C° 0 mm 3 m/S 696 mmHg 13%
    21:00 +31°C° 0 mm 3 m/S 696 mmHg 13%
    22:00 +30°C° 0 mm 3 m/S 697 mmHg 13%
    23:00 +28°C° 0 mm 3 m/S 697 mmHg 13%

    10 Juni, Mittwoch

    Zeit Temperatur Niederschläge Wind Luftdruck Luftfeuchtigkeit
    00:00 +28°C° 0 mm 2 m/S 696 mmHg 13%
    01:00 +27°C° 0 mm 1 m/S 696 mmHg 13%
    02:00 +26°C° 0 mm 1 m/S 696 mmHg 13%
    03:00 +25°C° 0 mm 1 m/S 696 mmHg 14%
    04:00 +25°C° 0 mm 1 m/S 696 mmHg 14%
    05:00 +22°C° 0 mm 0 m/S 696 mmHg 14%
    06:00 +27°C° 0 mm 1 m/S 697 mmHg 12%
    07:00 +29°C° 0 mm 1 m/S 697 mmHg 10%
    08:00 +32°C° 0 mm 1 m/S 698 mmHg 8%
    09:00 +33°C° 0 mm 1 m/S 698 mmHg 8%
    10:00 +35°C° 0 mm 1 m/S 698 mmHg 9%
    11:00 +36°C° 0 mm 1 m/S 698 mmHg 9%
    12:00 +39°C° 0 mm 2 m/S 698 mmHg 9%
    13:00 +40°C° 0 mm 2 m/S 697 mmHg 9%
    14:00 +42°C° 0 mm 3 m/S 697 mmHg 9%
    15:00 +42°C° 0 mm 3 m/S 696 mmHg 9%
    16:00 +42°C° 0 mm 3 m/S 696 mmHg 9%
    17:00 +42°C° 0 mm 3 m/S 696 mmHg 9%
    18:00 +40°C° 0 mm 3 m/S 696 mmHg 10%
    19:00 +38°C° 0 mm 4 m/S 696 mmHg 10%
    20:00 +36°C° 0 mm 4 m/S 696 mmHg 11%
    21:00 +35°C° 0 mm 4 m/S 696 mmHg 12%
    22:00 +33°C° 0 mm 3 m/S 696 mmHg 14%
    23:00 +31°C° 0 mm 3 m/S 696 mmHg 16%

    11 Juni, Donnerstag

    Zeit Temperatur Niederschläge Wind Luftdruck Luftfeuchtigkeit
    00:00 +30°C° 0 mm 2 m/S 696 mmHg 17%
    01:00 +29°C° 0 mm 1 m/S 695 mmHg 19%
    02:00 +28°C° 0 mm 1 m/S 695 mmHg 21%
    03:00 +27°C° 0 mm 1 m/S 695 mmHg 21%
    04:00 +25°C° 0 mm 0 m/S 695 mmHg 22%
    05:00 +24°C° 0 mm 0 m/S 695 mmHg 23%
    06:00 +27°C° 0 mm 0 m/S 696 mmHg 19%
    07:00 +29°C° 0 mm 0 m/S 696 mmHg 16%
    08:00 +31°C° 0 mm 0 m/S 697 mmHg 13%
    09:00 +35°C° 0 mm 1 m/S 697 mmHg 12%
    10:00 +37°C° 0 mm 1 m/S 697 mmHg 12%
    11:00 +39°C° 0 mm 1 m/S 697 mmHg 11%
    12:00 +40°C° 0 mm 2 m/S 697 mmHg 11%
    13:00 +43°C° 0 mm 3 m/S 696 mmHg 10%
    14:00 +44°C° 0 mm 4 m/S 696 mmHg 10%
    15:00 +45°C° 0 mm 5 m/S 696 mmHg 10%
    16:00 +45°C° 0 mm 7 m/S 695 mmHg 9%
    17:00 +45°C° 0 mm 8 m/S 695 mmHg 8%
    18:00 +43°C° 0 mm 7 m/S 695 mmHg 9%
    19:00 +40°C° 0 mm 6 m/S 695 mmHg 9%
    20:00 +38°C° 0 mm 6 m/S 695 mmHg 9%
    21:00 +35°C° 0 mm 4 m/S 695 mmHg 10%
    22:00 +32°C° 0 mm 2 m/S 695 mmHg 12%
    23:00 +31°C° 0 mm 1 m/S 695 mmHg 13%
    Mehr zeigen